Regional Weather Roundup
Issued by NWS

Home | Current Version | Previous Version | Text Only | Print | Product List | Glossary Off
Versions: 1 2 3 4 5 6 7 8 9 10 11 12 13 14 15 16 17 18 19 20 21 22 23 24 25 26 27 28 29 30 31 32 33 34 35 36 37 38 39 40 41 42 43 44 45 46 47 48 49 50

000
ASUS43 KLSX 241407
RWRMO

WEATHER SUMMARY FOR MISSOURI
NATIONAL WEATHER SERVICE SPRINGFIELD MO
900 AM CDT FRI OCT 24 2014

NOTE: "FAIR" INDICATES FEW OR NO CLOUDS BELOW 12,000 FEET WITH NO
       SIGNIFICANT WEATHER AND/OR OBSTRUCTIONS TO VISIBILITY.
       CURRENT SKY AND/OR WEATHER CONDITIONS ARE NOT AVAILABLE FOR
       CHILLICOTHE AND FARMINGTON.

MOZ001>031-035>038-043-044-053-054-241500-
...NORTHERN AND WESTERN MISSOURI...

CITY           SKY/WX    TMP DP  RH WIND       PRES   REMARKS
KANSAS CTY INT CLOUDY    58  57  97 S12       30.04S FOG
KANSAS C DTWN  PTSUNNY   58  56  93 S6        30.05S FOG
LEE`S SUMMIT   MOSUNNY   56  54  93 S7        30.07S
ST JOSEPH      CLOUDY    58  58 100 S6        30.03S FOG
CHILLICOTHE      N/A     58  57  97 S6        30.07R
KIRKSVILLE     FOG       56  56 100 S8        30.07F VSB 1/4

$$
MOZ066>068-077>081-088>096-101>105-241500-
...SOUTHWEST MISSOURI...

CITY           SKY/WX    TMP DP  RH WIND       PRES   REMARKS
SPRINGFIELD    CLOUDY    54  51  90 S5        30.12S
JOPLIN         SUNNY     57  54  89 S8        30.12S

$$
MOZ032>034-039>042-045>050-055>058-069>072-241500-
...CENTRAL MISSOURI...

CITY           SKY/WX    TMP DP  RH WIND       PRES   REMARKS
COLUMBIA       CLOUDY    57  56  96 S5        30.11S FOG
JEFFERSON CITY CLOUDY    53  52  96 SE3       30.12R FOG
ROLLA          PTSUNNY   55  54  96 SW6       30.12R FOG
SEDALIA        MOSUNNY   59  55  87 S7        30.11R
WHITEMAN AFB   CLOUDY    57  55  92 S9        30.09R
OSAGE BEACH    SUNNY     61  55  82 S5        30.12R

$$
MOZ051-052-059>065-241500-
...EAST CENTRAL MISSOURI...

CITY           SKY/WX    TMP DP  RH WIND       PRES   REMARKS
ST LOUIS INTL  CLOUDY    58  52  80 W7        30.12R
SPIRIT OF STL  PTSUNNY   54  52  93 CALM      30.12R
ST CHARLES     CLOUDY    55  52  89 CALM      30.11R

$$
MOZ072>076-082>087-097>100-106>115-241500-
...SOUTH CENTRAL AND SOUTHEAST MISSOURI...

CITY           SKY/WX    TMP DP  RH WIND       PRES   REMARKS
CAPE GIRARDEAU CLOUDY    54  48  80 W5        30.14R
FARMINGTON     PTSUNNY   52  48  87 CALM      30.15S
POPLAR BLUFF   CLOUDY    53  48  83 CALM      30.14R
WEST PLAINS    PTSUNNY   51  48  89 CALM      30.16R

$$



USA.gov is the U.S. government's official web portal to all federal, state and local government web resources and services.